This is the latest recevied weather packets stored in our database for station/object N2UFM. If no packets are shown the sender has not sent any weather packets the latest 10 day(s).
| Time | Temp. | Humidity | Pressure | Rain* | Wind** | Luminosity | Snow |
|---|---|---|---|---|---|---|---|
| 1778221883 | 11.11° C | 70% | 1012 hPa | 0 mm | - | - | - |
| 1778221583 | 11.11° C | 71% | 1011.9 hPa | 0 mm | - | - | - |
| 1778221283 | 11.11° C | 73% | 1011.8 hPa | 0 mm | - | - | - |
| 1778220983 | 11.11° C | 77% | 1011.8 hPa | 0 mm | - | - | - |
| 1778220683 | 11.11° C | 82% | 1011.8 hPa | 0 mm | - | - | - |
| 1778220383 | 11.11° C | 85% | 1011.6 hPa | 0 mm | - | - | - |
| 1778220083 | 11.11° C | 86% | 1011.5 hPa | 0 mm | - | - | - |
| 1778219782 | 11.11° C | 87% | 1011.5 hPa | 0 mm | - | - | - |
| 1778219482 | 10.56° C | 87% | 1011.3 hPa | 0 mm | - | - | - |
| 1778219182 | 10.56° C | 87% | 1010.8 hPa | 0 mm | - | - | - |
| 1778218882 | 10.56° C | 87% | 1010.7 hPa | 0 mm | - | - | - |
| 1778218582 | 10.56° C | 87% | 1010.5 hPa | 0 mm | - | - | - |
| 1778218281 | 10.56° C | 86% | 1010.6 hPa | 0 mm | - | - | - |
| 1778217981 | 10.56° C | 86% | 1010.6 hPa | 0 mm | - | - | - |
| 1778217681 | 11.11° C | 86% | 1010.5 hPa | 0 mm | - | - | - |
| 1778217381 | 10.56° C | 86% | 1010.7 hPa | 0 mm | - | - | - |
| 1778217081 | 10.56° C | 86% | 1010.9 hPa | 0 mm | - | - | - |
| 1778216781 | 10.56° C | 87% | 1011 hPa | 0 mm | - | - | - |
| 1778216481 | 10° C | 87% | 1011.1 hPa | 0 mm | - | - | - |
| 1778216180 | 10° C | 87% | 1010.9 hPa | 0 mm | - | - | - |
| 1778215880 | 10° C | 86% | 1010.7 hPa | 0 mm | - | - | - |
| 1778215580 | 10° C | 86% | 1010.7 hPa | 0 mm | - | - | - |
| 1778215280 | 10° C | 86% | 1010.6 hPa | 0 mm | - | - | - |
| 1778214980 | 10° C | 86% | 1010.5 hPa | 0 mm | - | - | - |
| 1778214680 | 10° C | 86% | 1010.4 hPa | 0 mm | - | - | - |
* Rain latest hour (hover to see other rain measurements)
** Current wind speed in m/s (hover to see current wind gust speed)